EST,Max TemperatureF,Mean TemperatureF,Min TemperatureF,Max Dew PointF,MeanDew PointF,Min DewpointF,Max Humidity, Mean Humidity, Min Humidity, Max Sea Level PressureIn, Mean Sea Level PressureIn, Min Sea Level PressureIn, Max VisibilityMiles, Mean VisibilityMiles, Min VisibilityMiles, Max Wind SpeedMPH, Mean Wind SpeedMPH, Max Gust SpeedMPH,PrecipitationIn, CloudCover, Events, WindDirDegrees
2014-2-1,37,29,21,32,23,14,93,72,45,30.35,30.24,30.03,10,10,10,12,3,20,0.00,2,,189
2014-2-2,42,36,30,36,34,30,100,85,70,30.03,29.92,29.83,10,8,2,12,6,17,0.00,5,,250
2014-2-3,33,27,21,30,18,12,100,64,47,30.29,30.20,30.04,10,10,9,10,5,16,0.00,0,,9
2014-2-4,30,21,12,18,13,7,100,66,44,30.45,30.38,30.29,10,10,10,12,4,,0.00,0,,287
2014-2-5,26,22,19,21,17,10,93,80,54,30.38,30.04,29.73,10,5,0,16,10,24,0.09,7,,30
2014-2-6,21,14,6,12,8,-2,100,73,54,30.25,30.16,29.92,10,10,1,9,4,,0.01,1,,307
2014-2-7,26,16,5,12,8,0,100,68,37,30.18,30.13,30.09,10,10,10,17,5,17,0.01,2,,260
2014-2-8,26,16,6,12,6,1,92,59,37,30.22,30.16,30.12,10,10,10,14,7,18,0.00,0,,279
2014-2-9,23,20,17,19,7,1,100,59,46,30.19,30.11,29.98,10,9,2,9,4,,0.00,2,,33
2014-2-10,24,18,8,19,10,-2,93,67,46,30.17,30.01,29.90,10,8,2,14,7,20,0.01,4,,347
2014-2-11,21,10,-2,7,-2,-8,100,60,39,30.38,30.24,30.17,10,10,10,18,5,25,0.00,0,,290
2014-2-12,24,12,0,9,-2,-15,100,58,28,30.53,30.46,30.38,10,10,10,9,3,,0.00,0,,250
2014-2-13,33,20,6,34,23,1,100,85,50,30.43,30.02,29.18,10,6,0,26,9,39,0.92,7,,37
2014-2-14,39,32,26,37,27,18,100,83,60,29.63,29.03,28.67,10,7,1,32,17,43,0.23,6,,303
2014-2-15,33,25,17,30,23,12,100,83,64,29.90,29.75,29.42,10,7,1,18,8,26,0.09,4,,44
2014-2-16,26,19,12,23,12,1,93,63,43,29.88,29.58,29.33,10,8,1,28,13,37,0.01,2,,293
2014-2-17,24,16,8,3,-3,-8,67,44,28,30.34,30.11,29.88,10,10,8,20,10,30,0.00,0,,300
2014-2-18,33,14,-4,32,14,-13,100,80,40,30.38,30.20,29.87,10,8,0,20,6,25,0.30,5,,72
2014-2-19,35,27,19,34,27,18,100,91,80,30.07,29.93,29.71,10,9,1,12,6,18,0.20,5,,61
2014-2-20,42,36,30,34,30,27,100,80,57,30.21,30.03,29.74,10,10,1,16,7,22,0.00,3,,259
2014-2-21,46,40,33,46,36,32,100,97,93,30.21,30.01,29.64,10,6,0,23,8,29,0.97,8,,96
2014-2-22,44,37,30,36,30,27,100,73,49,29.89,29.82,29.73,10,10,2,23,11,30,0.39,1,,232
2014-2-23,44,40,37,32,27,19,75,60,42,29.95,29.86,29.74,10,10,10,14,9,22,0.00,3,,227
2014-2-24,39,28,17,21,10,0,64,43,35,29.85,29.73,29.65,10,10,10,20,8,30,0.00,2,,295
2014-2-25,23,18,10,7,2,0,67,51,39,29.92,29.87,29.81,10,10,10,20,11,24,0.00,0,,275
2014-2-26,26,14,3,18,6,-6,93,65,42,29.91,29.82,29.71,10,9,0,18,5,25,0.00,2,,271
2014-2-27,24,12,0,18,4,-9,100,72,41,29.85,29.73,29.61,10,9,0,13,4,,0.01,2,,320
2014-2-28,21,14,6,12,-3,-9,100,49,28,30.46,30.16,29.74,10,10,5,24,11,30,0.00,0,,279